User: anonymous   Login
Location: Unspecified
(0.0000°N, 0.0000°E)
Time: 03:53:34
(UTC+00:00)
Language:

CORVUS BC1 - Orbit

View from above orbital plane
View from above orbital plane
View from above satellite
View from above satellite

Ground track
Ground track

The orbit data is extracted from the following two-line orbital elements,

1 42847U 17042Y   17230.21531564  .00000273  00000-0  32482-4 0  9994
2 42847  97.6111 138.7250 0010641 119.9827 240.2449 14.91728879  5193
Epoch (UTC): 18 August 2017 05:10:03
Eccentricity: 0.0010641
inclination: 97.6111°
perigee height: 585 km
apogee height: 600 km
right ascension of ascending node: 138.7250°
argument of perigee: 119.9827°
revolutions per day: 14.91728879
mean anomaly at epoch: 240.2449°
orbit number at epoch: 519

The dashed part of the orbit path shows where the satellite is in the earth's shadow,  

DLR